Waarnemingen

Advertentie
Mijn weer
Boulmer, Groot Brittannië (3240): temperatuur & dauwpunt: 30.05.2020 20:00:00 - 05.06.2020 20:00:00 (BST)Boulmer, Groot Brittannië (3240): windsnelheid & windstoten: 30.05.2020 20:00:00 - 05.06.2020 20:00:00 (BST)Boulmer, Groot Brittannië (3240): windrichting: 30.05.2020 20:00:00 - 05.06.2020 20:00:00 (BST)Boulmer, Groot Brittannië (3240): luchtdruk: 30.05.2020 20:00:00 - 05.06.2020 20:00:00 (BST)Boulmer, Groot Brittannië (3240): zicht: 30.05.2020 20:00:00 - 05.06.2020 20:00:00 (BST)Boulmer, Groot Brittannië (3240): Zonneschijnduur: 30.05.2020 20:00:00 - 05.06.2020 20:00:00 (BST)Boulmer, Groot Brittannië (3240): neerslag: 30.05.2020 20:00:00 - 05.06.2020 20:00:00 (BST)
Datum & Tijd tt [°C] td [°C] ff [km/u] ff [kn] fx [km/u] fx [kn] dd ppp [hPa] vv [km] sd [min] rr [mm]
05.06.2020 20:00:00 9,6 4,5 24 13 55 30 NW 988,7 10 6 0,0
05.06.2020 19:00:00 12,5 3,1 24 13 46 25 W 988,6 35 0 0,0
05.06.2020 18:00:00 12,0 4,6 16 9 46 25 WNW 989,2 10 0 0,0
05.06.2020 17:00:00 12,3 4,2 29 16 55 30 WZW 989,8 10 24 0,0
05.06.2020 16:00:00 13,7 3,9 29 16 55 30 W 990,6 35 48 0,0
05.06.2020 15:00:00 13,0 3,0 29 16 48 26 WNW 991,0 30 42 0,0
05.06.2020 14:00:00 11,1 3,5 31 17 50 27 W 991,6 26 24 0,0
05.06.2020 13:00:00 12,4 3,6 26 14 - - WNW 992,0 10 36 0,0
05.06.2020 12:00:00 11,8 3,4 28 15 - - WNW 992,7 40 30 0,0
05.06.2020 11:00:00 9,2 6,2 15 8 - - NW 993,1 40 30 0,4
05.06.2020 10:00:00 10,4 5,2 26 14 48 26 WNW 993,5 25 12 0,0
05.06.2020 09:00:00 9,6 4,0 26 14 - - NW 993,8 35 48 0,0
05.06.2020 08:00:00 8,0 4,4 22 12 - - WNW 994,0 40 48 0,0
05.06.2020 07:00:00 7,2 5,8 15 8 - - W 994,4 10 0 0,2
05.06.2020 06:00:00 6,7 4,8 21 11 - - WNW 994,8 10 0 0,4
05.06.2020 05:00:00 6,4 5,2 13 7 - - W 995,0 10 0 0,0
05.06.2020 04:00:00 6,3 4,9 13 7 - - W 995,6 40 0 0,6
05.06.2020 03:00:00 6,0 4,9 16 9 - - NW 996,4 15 0 0,2
05.06.2020 02:00:00 6,6 5,6 9 5 - - W 996,7 10 0 0,0
05.06.2020 01:00:00 7,7 7,0 9 5 - - WNW 997,3 10 - 0,0
05.06.2020 00:00:00 7,8 7,1 9 5 - - NW 997,9 10 0 0,0
04.06.2020 23:00:00 7,9 7,0 8 4 - - NW 998,4 30 0 0,6
04.06.2020 22:00:00 8,2 6,7 9 5 - - N 998,9 9 0 0,0
04.06.2020 21:00:00 8,5 6,9 5 3 - - N 998,8 35 0 0,6
04.06.2020 20:00:00 9,1 6,1 8 4 - - NNO 999,2 10 0 0,2
04.06.2020 19:00:00 9,9 4,8 8 4 - - NO 999,5 40 0 0,0
04.06.2020 18:00:00 10,4 4,4 9 5 - - ONO 999,5 10 6 0,0
04.06.2020 17:00:00 10,1 4,4 9 5 - - ONO 1000,3 10 0 0,0
04.06.2020 16:00:00 11,4 5,0 11 6 - - NO 1000,8 10 42 0,0
04.06.2020 15:00:00 10,7 5,8 15 8 - - NNO 1001,2 35 6 0,0
04.06.2020 14:00:00 11,1 5,9 18 10 - - NNO 1001,8 35 36 0,0
04.06.2020 13:00:00 11,7 6,5 21 11 - - NNO 1002,2 10 24 0,0
04.06.2020 12:00:00 11,1 6,6 18 10 - - NNO 1002,7 10 18 0,0
04.06.2020 11:00:00 10,7 6,1 13 7 - - N 1003,3 10 6 0,0
04.06.2020 10:00:00 12,2 6,4 13 7 - - NW 1003,6 10 54 0,0
04.06.2020 09:00:00 10,1 7,0 11 6 - - NNW 1004,4 10 12 0,0
04.06.2020 08:00:00 9,2 6,3 11 6 - - WNW 1004,9 10 0 0,0
04.06.2020 07:00:00 8,5 6,2 11 6 - - WNW 1005,4 35 0 0,0
04.06.2020 06:00:00 8,0 6,3 11 6 - - W 1006,1 30 0 0,0
04.06.2020 05:00:00 7,9 6,2 11 6 - - W 1007,0 10 0 0,0
04.06.2020 04:00:00 8,0 6,0 9 5 - - WNW 1007,8 10 0 0,0
04.06.2020 03:00:00 8,4 6,3 9 5 - - NW 1008,4 10 0 0,0
04.06.2020 02:00:00 8,4 6,3 8 4 - - NW 1009,4 30 0 0,0
04.06.2020 01:00:00 8,4 6,0 9 5 - - NNW 1010,3 10 - 0,0
04.06.2020 00:00:00 8,6 6,5 13 7 - - NNW 1011,1 30 0 0,0
03.06.2020 23:00:00 8,7 6,5 16 9 - - N 1011,7 10 0 0,0
03.06.2020 22:00:00 9,1 7,7 16 9 - - N 1012,1 10 0 0,0
03.06.2020 21:00:00 9,3 8,0 24 13 - - N 1012,4 10 0 0,2
03.06.2020 20:00:00 9,8 8,3 21 11 - - N 1012,5 24 0 0,0
03.06.2020 19:00:00 9,7 9,0 24 13 - - NNW 1012,7 10 0 0,0
03.06.2020 18:00:00 9,8 9,0 22 12 46 25 NNW 1012,7 10 12 0,4
03.06.2020 17:00:00 11,5 8,2 26 14 - - NNW 1013,3 10 18 0,0
03.06.2020 16:00:00 10,9 7,5 28 15 - - N 1013,7 10 6 0,0
03.06.2020 15:00:00 11,6 7,7 24 13 - - N 1013,8 28 30 0,0
03.06.2020 14:00:00 11,3 7,7 26 14 46 25 N 1014,1 22 0 0,0
03.06.2020 13:00:00 10,3 7,3 28 15 - - N 1014,6 22 0 0,0
03.06.2020 12:00:00 10,1 6,6 26 14 46 25 N 1014,8 10 0 0,0
03.06.2020 11:00:00 9,8 7,0 26 14 - - N 1015,0 21 0 0,0
03.06.2020 10:00:00 9,8 7,5 22 12 - - NNW 1014,9 10 0 0,0
03.06.2020 09:00:00 9,5 7,5 26 14 - - NNW 1014,9 20 0 0,0
03.06.2020 08:00:00 9,3 8,2 24 13 - - NNW 1014,9 20 0 0,2
03.06.2020 07:00:00 9,4 8,9 26 14 - - N 1014,7 10 0 1,0
03.06.2020 06:00:00 9,6 9,1 22 12 - - N 1014,7 12 0 1,2
03.06.2020 05:00:00 9,7 9,3 22 12 - - N 1014,5 10 0 1,8
03.06.2020 04:00:00 10,0 9,8 21 11 - - N 1014,6 8 0 2,0
03.06.2020 03:00:00 10,7 10,4 16 9 - - N 1014,8 7 0 1,0
03.06.2020 02:00:00 10,9 10,6 18 10 - - N 1015,1 14 0 0,2
03.06.2020 01:00:00 11,1 10,9 16 9 - - N 1015,4 10 - 0,0
03.06.2020 00:00:00 11,4 11,3 15 8 - - N 1015,4 6 0 1,0
02.06.2020 23:00:00 11,7 11,4 11 6 - - N 1015,8 5 0 1,0
02.06.2020 22:00:00 12,4 11,4 13 7 - - N 1016,1 10 0 0,2
02.06.2020 21:00:00 14,0 10,8 4 2 - - W 1016,1 20 0 0,0
02.06.2020 20:00:00 14,4 9,7 9 5 - - Z 1015,6 10 0 0,0
02.06.2020 19:00:00 15,0 10,1 9 5 - - ZZO 1016,2 23 0 0,0
02.06.2020 18:00:00 15,6 9,8 13 7 - - ZZO 1016,7 24 0 0,0
02.06.2020 17:00:00 15,0 9,9 15 8 - - ZZO 1017,4 26 0 0,0
02.06.2020 16:00:00 15,6 10,5 16 9 - - ZZO 1018,2 10 6 0,0
02.06.2020 15:00:00 16,1 9,2 16 9 - - ZO 1018,6 10 30 0,0
02.06.2020 14:00:00 17,9 8,2 21 11 - - ZO 1019,1 28 36 0,0
02.06.2020 13:00:00 18,0 8,2 18 10 - - ZO 1019,7 26 48 0,0
02.06.2020 12:00:00 18,6 8,5 16 9 - - ZO 1020,4 10 60 0,0
02.06.2020 11:00:00 18,0 9,5 11 6 - - ZO 1021,2 10 60 0,0
02.06.2020 10:00:00 17,3 8,8 11 6 - - ZO 1021,8 10 54 -
02.06.2020 09:00:00 15,9 8,5 9 5 - - Z 1022,2 10 30 -
02.06.2020 08:00:00 14,3 9,6 8 4 - - ZO 1022,3 10 54 0,0
02.06.2020 07:00:00 12,3 7,6 5 3 - - ZW 1022,9 30 54 0,0
02.06.2020 06:00:00 9,4 6,3 4 2 - - WZW 1023,1 10 12 0,0
02.06.2020 05:00:00 8,7 4,7 9 5 - - WZW 1023,7 30 0 0,0
02.06.2020 04:00:00 9,0 5,9 11 6 - - WZW 1024,0 10 0 0,0
02.06.2020 03:00:00 9,5 7,7 8 4 - - WZW 1024,3 10 0 0,0
02.06.2020 02:00:00 10,0 9,0 9 5 - - WZW 1024,9 15 0 0,0
02.06.2020 01:00:00 10,3 9,4 11 6 - - WZW 1025,5 10 - 0,0
02.06.2020 00:00:00 10,8 10,2 8 4 - - Z 1025,5 10 0 0,0
01.06.2020 23:00:00 11,2 10,6 8 4 - - Z 1025,9 10 0 0,0
01.06.2020 22:00:00 12,1 11,1 4 2 - - ZZW 1026,2 10 0 0,0
01.06.2020 21:00:00 13,5 11,5 5 3 - - ZO 1026,1 24 30 0,0
01.06.2020 20:00:00 14,5 11,5 9 5 - - ZO 1026,3 10 60 0,0
01.06.2020 19:00:00 15,1 11,5 11 6 - - ZO 1026,4 28 60 0,0
01.06.2020 18:00:00 16,1 11,5 13 7 - - OZO 1026,6 28 60 0,0
01.06.2020 17:00:00 16,2 11,4 13 7 - - O 1027,1 30 60 0,0
01.06.2020 16:00:00 15,6 11,3 13 7 - - O 1027,4 28 60 0,0
01.06.2020 15:00:00 16,2 10,3 16 9 - - O 1027,6 10 60 0,0
01.06.2020 14:00:00 16,0 10,9 13 7 - - O 1027,9 25 54 0,0
01.06.2020 13:00:00 16,8 7,9 11 6 - - ONO 1027,8 10 60 0,0
01.06.2020 12:00:00 15,7 11,4 13 7 - - O 1028,3 10 60 0,0
01.06.2020 11:00:00 15,2 11,8 9 5 - - O 1028,2 10 60 0,0
01.06.2020 10:00:00 13,9 11,5 9 5 - - O 1028,2 10 60 0,0
01.06.2020 09:00:00 14,5 12,2 9 5 - - O 1028,1 17 60 0,0
01.06.2020 08:00:00 11,5 11,5 5 3 - - W 1028,1 10 12 0,0
01.06.2020 07:00:00 10,7 10,7 5 3 - - ZW 1028,0 5 0 0,0
01.06.2020 06:00:00 10,8 10,8 4 2 - - Z 1028,0 0,3 0 0,0
01.06.2020 05:00:00 10,3 10,3 4 2 - - ZZW 1027,6 0,4 0 0,0
01.06.2020 04:00:00 10,7 10,6 4 2 - - Z 1027,5 0,5 0 0,0
01.06.2020 03:00:00 11,2 11,2 5 3 - - Z 1027,3 5 0 0,0
01.06.2020 02:00:00 11,7 11,7 5 3 - - WZW 1027,4 0,3 0 0,0
01.06.2020 01:00:00 11,6 11,5 4 2 - - W 1027,6 0,3 - 0,0
01.06.2020 00:00:00 11,6 11,4 4 2 - - WZW 1027,4 0,1 0 0,0
31.05.2020 23:00:00 10,4 9,6 2 1 - - O 1027,7 0,2 0 0,0
31.05.2020 22:00:00 12,3 11,7 4 2 - - O 1027,4 1,3 0 0,0
31.05.2020 21:00:00 13,1 11,9 5 3 - - O 1027,2 14 60 0,0
31.05.2020 20:00:00 14,2 12,1 9 5 - - OZO 1027,0 24 60 0,0
31.05.2020 19:00:00 14,7 12,2 8 4 - - OZO 1026,7 10 60 0,0
31.05.2020 18:00:00 14,7 12,1 13 7 - - O 1026,7 10 60 0,0
31.05.2020 17:00:00 15,0 12,0 11 6 - - O 1026,8 10 60 0,0
31.05.2020 16:00:00 15,6 12,4 11 6 - - O 1027,1 26 60 0,0
31.05.2020 15:00:00 15,1 11,9 11 6 - - O 1027,3 10 60 0,0
31.05.2020 14:00:00 15,5 12,4 13 7 - - ONO 1027,4 25 60 0,0
31.05.2020 13:00:00 14,7 11,6 13 7 - - NO 1027,5 22 60 0,0
31.05.2020 12:00:00 14,9 11,9 13 7 - - NO 1027,8 24 54 0,0
31.05.2020 11:00:00 14,1 11,7 15 8 - - NNO 1027,8 23 60 0,0
31.05.2020 10:00:00 14,1 11,5 11 6 - - NO 1027,7 10 60 0,0
31.05.2020 09:00:00 14,2 11,2 5 3 - - ONO 1027,8 23 48 0,0
31.05.2020 08:00:00 12,0 11,1 5 3 - - ONO 1027,8 8 0 0,0
31.05.2020 07:00:00 11,5 10,8 4 2 - - O 1027,7 10 0 0,0
31.05.2020 06:00:00 11,0 10,5 9 5 - - O 1027,5 10 0 0,0
31.05.2020 05:00:00 10,6 9,8 5 3 - - OZO 1027,3 12 0 0,0
31.05.2020 04:00:00 10,7 9,6 8 4 - - ZO 1027,2 14 0 0,0
31.05.2020 03:00:00 11,7 10,3 9 5 - - ZO 1027,4 10 0 0,0
31.05.2020 02:00:00 11,5 10,3 11 6 - - OZO 1027,5 19 0 0,0
31.05.2020 01:00:00 11,4 10,0 13 7 - - ZO 1027,7 10 - 0,0
31.05.2020 00:00:00 11,3 10,8 11 6 - - OZO 1027,7 10 0 0,0
30.05.2020 23:00:00 10,7 10,1 8 4 - - O 1027,5 7 0 0,0
30.05.2020 22:00:00 11,3 10,1 8 4 - - OZO 1027,3 10 0 0,0
30.05.2020 21:00:00 12,2 10,9 13 7 - - OZO 1026,9 20 0 0,0
30.05.2020 20:00:00 12,6 11,1 11 6 - - O 1026,6 22 24 0,0

tt = temperatuur
td = dauwpunt
ff = windsnelheid
fx = windstoten
dd = windrichting
ppp = luchtdruk
vv = zicht
sd = Zonneschijnduur
rr = neerslag

Weerstations in de omgeving